STARLINK-37176, 68615

Orbit data source: Space-Track

STARLINK-37176, 68615 is a payload satellite owned by SpaceX/Seattle (US) in SSO that was launched on Sun, 05 Apr 2026 UTC via an FALCON 9 launch vehicle from the Air Force Western Test Range (AFWTR). Payload-class satellites include a variety of spacecraft equipped with specific instruments for various scientific and technological missions. These include communications satellites like Starlink; space stations such as the ISS; scientific satellites like the Hubble; Earth observation satellites from companies like Planet Labs, Umbra, and HawkEye 360; GPS; miniature CubeSats for education and research; and military/defense satellites.

Loading next visibility...
Identifier
68615, 2026-073P
Orbit
SSO
Country
Flag of USUS
Related business
Manufacturer
SpaceX/Seattle
Mission
Operational spacecraft
Bus & Motor
STARLINK V2MO, Unknown motor
Mass
575 kg wet, ~530 kg dry
Launch date (UTC)
2026-04-05 (3 months ago)
Launch vehicle
FALCON 9
Launch site
Air Force Western Test Range (AFWTR)
Object type
Payload
Rocket body
Debris
Shape & HBR
Unknown shape, 2.1 m
Radar Cross Section
Large (>1 m²)

Expand to show TLE details & history
Last TLE update: 1 day ago

TLE from 1 day ago
0 STARLINK-37176
1 68615U 26073P   26170.50871308  .00015157  00000-0  47072-3 0  9994
2 68615  97.2857   9.9050 0001967  89.3216 270.8252 15.33453823 11499
Epoch: 2026-06-19T12:12Z
TLE epoch observation values (Epoch: 2026-06-19T12:12:32.810Z)
Latitude
-0.00001°
Longitude
-80.96838°
Altitude
468.61 km
Speed
7.632 km/s
True Right ascension
00h 39m 37s
True Declination
0° 00' 00"
Sunlit
Object was in daylight at epoch
Visualization orbit readout
Latitude
Unknown
Longitude
Unknown
Altitude
Unknown
Speed
Unknown
Apparent Right ascension
Unknown
Apparent Declination
Unknown
Sunlit
N/A
Visualization observer readout
Local Sidereal Time
07:14:52
Azimuth
Unknown
Elevation
Unknown
Doppler factor
Unknown
Orbital elements
Apogee altitude
463.805 km
Perigee altitude
461.114 km
Semi-major axis
6,840.597 km
Eccentricity
0.0002
Inclination
97.2857°
RAAN
9.905°
Arg. of periapsis
89.3216°
True anomaly
270.80266°
Mean anomaly
270.8252°
Eccentric anomaly
270.81393°
Mean motion
3.83621 °/min
Orbital period
93.84 mins
BSTAR
0.00047072
Loading maneuver chart data...
Computing Atmospheric mass density...
Loading historical data...
Loading historical data...
Loading historical data...
Loading historical data...
Loading historical data...
Loading historical data...
Loading historical data...

Documentation

Showing up to 5 results
|